{"data":{"norad_id":58843,"intl_designator":"2024-017T","name":"STARLINK-31280","alt_names":[],"object_type":"PAYLOAD","status":"ACTIVE","operator":null,"country":"US","launch_date":"2024-01-24","launch_site_code":"AFWTR","launch_vehicle":null,"mission":null,"orbit_class":"UNKNOWN","rcs_meters":null,"size_class":null,"mass_kg":null,"dimensions":null,"purposes":["comms"],"wikipedia_slug":null,"has_3d_model":false,"image_url":null,"decayed_at":null,"tle_current":{"epoch":"2026-09-20T13:59:24.776160Z","epoch_age_seconds":145427,"freshness":"FRESH","line1":"1 58843U 24017T   26263.58292565  .00000340  00000+0  21207-4 0  9995","line2":"2 58843  53.1616  17.0472 0001442  79.2163 280.9002 15.34387957149920","mean_motion":15.34387957,"eccentricity":0.0001442,"inclination_deg":53.1616,"raan_deg":17.0472,"arg_perigee_deg":79.2163,"mean_anomaly_deg":280.9002,"bstar":2.1207e-5,"rev_number":14992,"period_min":93.848494667245,"perigee_km":461.75258045095,"apogee_km":463.72548909938,"semimajor_km":6840.8760347752,"source":"CELESTRAK","updated_at":"2026-09-21T09:00:33.985846Z"}}}